User: anonymous   Login
Location: Unspecified
(0.0000°N, 0.0000°E)
Time: 02:35:50
(UTC+02:00)
Language:

Landsat 4 - Orbit

View from above orbital plane
View from above orbital plane
View from above satellite
View from above satellite

Ground track
Ground track

The orbit data is extracted from the following two-line orbital elements,

1 13367U 82072A   17234.55231122 +.00000608 +00000-0 +35771-4 0  9998
2 13367 098.2569 043.0787 0012720 340.9612 063.1475 15.15950379320395
Epoch (UTC): 22 August 2017 13:15:19
Eccentricity: 0.0012720
inclination: 98.2569°
perigee height: 509 km
apogee height: 527 km
right ascension of ascending node: 43.0787°
argument of perigee: 340.9612°
revolutions per day: 15.15950379
mean anomaly at epoch: 63.1475°
orbit number at epoch: 32039

The dashed part of the orbit path shows where the satellite is in the earth's shadow,  

DLR